Погода в Гофицком

Россия / Ставропольский край     45˚04′40″N   43˚02′14″E
темп.,
°C
ветер,
м/с
пор.,
м/с
влажн.,
%
обл.,
%
осадки,
мм/ч
давл.,
гПа
погр.,
м
17 января, вс
вс1700:00−1˚в5986100 0.0 1015497
03:00−2˚в71193100 0.1 1013536
06:00−2˚в81483100 0.2 1011856
09:00−3˚в91591100 0.6 1009688
12:00−2˚вюв111789100 0.5 1006642
15:00−2˚в101584100 0.7 1004565
18:00−2˚в91386100 0.1 1005457
21:00−2˚вюв71291100 0.1 1004433
18 января, пн
пн1800:00−2˚в4894100 0.1 1005364
03:00−2˚всв2394100 0.6 1005248
06:00−2˚юв3495100 0.8 1007213
09:00−1˚зсз71191100 1.6 1010533
12:00−3˚з91479100 0.0 1012672
15:00−4˚зсз101482100 0.0 1013638
18:00−6˚зсз81288100 0.0 1016582
21:00−6˚зсз81285100 0.1 1017572
19 января, вт
вт1900:00−6˚зсз71188100 0.0 1019541
03:00−5˚зсз71289100 0.0 1020613
06:00−6˚зсз379199 0.2 1021417
09:00−5˚ююв2488100 0.2 1021166
12:00−2˚ю34701 0.0 1019435
15:00−1˚ююз246336 0.0 1017963
18:00−3˚зюз228152 0.0 101968
21:00−4˚ссз469575 0.9 1021297
20 января, ср
ср2000:00−5˚зсз3793100 0.6 1022457
03:00−6˚зсз598796 0.7 1023517
06:00−7˚зсз4885100 0.0 1024468
09:00−7˚зсз3583100 0.0 1026400
12:00−5˚з357499 0.0 1025741
15:00−5˚сз458297 0.1 1025514
18:00−7˚сз3592100 0.1 1028364
21:00−8˚зсз368999 0.2 1029468
21 января, чт
чт2100:00−8˚з379061 0.0 1030430
03:00−9˚зсз379252 0.0 1031397
06:00−9˚зсз27931 0.0 1032289
09:00−8˚зюз25860 0.0 1033232
12:00−4˚з34730 0.0 1032419
15:00−2˚зюз12710 0.0 1031330
18:00−3˚ююв127874 0.0 103221
21:00−3˚ю347785 0.0 103260